Lake Charles, LA

7:25 PM CST on December 04, 2016 (GMT -0600)
Lake Charles Regional

Weather History for KLCH - February, 2013

Change the Weather History Date:

Thursday, February 21, 2013

  Actual Average Record
Temperature  
Mean Temperature 64 °F 56 °F  
Max Temperature 72 °F 66 °F 87 °F (1913)
Min Temperature 56 °F 47 °F 28 °F (1978)
Degree Days  
Heating Degree Days 1 9  
Month to date heating degree days 136 232  
Since 1 July heating degree days 918 1223  
Cooling Degree Days 0 0  
Month to date cooling degree days 6 0  
Year to date cooling degree days 30 10  
Growing Degree Days 14 (Base 50)    
Moisture  
Dew Point 61 °F    
Average Humidity 83    
Maximum Humidity 93    
Minimum Humidity 72    
Precipitation  
Precipitation 0.47 in 0.11 in 2.70 in (1969)
Month to date precipitation 4.95 2.66  
Year to date precipitation 16.33 7.89  
Snow  
Snow 0.00 in 0.00 in T in (1964)
Month to date snowfall 0.0 0.1  
Since 1 July snowfall 0.0 0.1  
Snow Depth 0.00 in    
Sea Level Pressure  
Sea Level Pressure 29.82 in    
Wind  
Wind Speed 12 mph (SSE)    
Max Wind Speed 23 mph    
Max Gust Speed 30 mph    
Visibility 7 miles    
Events Rain , Thunderstorm    
T = Trace of Precipitation, MM = Missing Value Source: NWS Daily Summary

Daily Weather History Graph

Daily Weather History Graph

Search for Another Location

Airport or City:

Trip Planner

Search our weather history database for the weather conditions in past years. The results will help you decide how hot, cold, wet, or windy it might be!

Date:

Astronomy

Feb. 21, 2013 Rise Set
Actual Time 6:46 AM CST 6:06 PM CST
Civil Twilight 6:22 AM CST 6:30 PM CST
Nautical Twilight 5:54 AM CST 6:58 PM CST
Astronomical Twilight 5:26 AM CST 7:26 PM CST
Moon 2:32 PM CST (2/21) 3:40 AM CST (2/21)
Length of Visible Light 12h 07m
Length of Day
11h 19m
Waxing Gibbous, 84% of the Moon is Illuminated
Feb 21
Waxing Gibbous
Feb 25
Full
Mar 4
Last Quarter
Mar 11
New
Mar 19
First Quarter

Hourly Weather History & Observations

Time (CST) Temp. Dew Point Humidity Pressure Visibility Wind Dir Wind Speed Gust Speed Precip Events Conditions
12:53 AM 55.9 °F 48.9 °F 77% 29.93 in 10.0 mi ESE 20.7 mph 27.6 mph N/A   Overcast
1:16 AM 55.4 °F 48.2 °F 77% 29.89 in 10.0 mi ESE 20.7 mph 26.5 mph N/A   Overcast
1:53 AM 55.9 °F 48.9 °F 77% 29.91 in 10.0 mi ESE 15.0 mph 24.2 mph N/A   Overcast
2:53 AM 57.0 °F 51.1 °F 81% 29.88 in 10.0 mi ESE 16.1 mph 21.9 mph N/A   Overcast
3:51 AM 57.2 °F 51.8 °F 82% 29.84 in 10.0 mi ESE 17.3 mph - N/A   Overcast
3:53 AM 57.0 °F 52.0 °F 83% 29.86 in 10.0 mi ESE 16.1 mph - N/A   Overcast
4:36 AM 57.2 °F 53.6 °F 88% 29.84 in 10.0 mi ESE 15.0 mph - N/A   Overcast
4:53 AM 57.2 °F 53.6 °F 88% 29.84 in 10.0 mi ESE 13.8 mph - N/A   Overcast
5:33 AM 59.0 °F 53.6 °F 82% 29.83 in 10.0 mi ESE 16.1 mph 24.2 mph N/A   Overcast
5:53 AM 60.1 °F 54.0 °F 80% 29.85 in 10.0 mi ESE 17.3 mph 25.3 mph N/A   Overcast
6:53 AM 60.1 °F 54.0 °F 80% 29.86 in 10.0 mi SE 19.6 mph 28.8 mph 0.00 in Rain Light Rain
7:38 AM 60.8 °F 55.4 °F 82% 29.86 in 10.0 mi SE 17.3 mph - 0.00 in Thunderstorm Thunderstorm
7:53 AM 60.1 °F 55.9 °F 86% 29.88 in 10.0 mi SE 16.1 mph - 0.00 in Thunderstorm Thunderstorm
8:04 AM 60.8 °F 55.4 °F 82% 29.84 in 10.0 mi ESE 20.7 mph 25.3 mph N/A   Overcast
8:53 AM 62.1 °F 57.0 °F 84% 29.87 in 10.0 mi SE 19.6 mph 25.3 mph N/A   Overcast
9:40 AM 62.6 °F 57.2 °F 82% 29.84 in 10.0 mi SE 18.4 mph - N/A   Overcast
9:53 AM 63.0 °F 57.9 °F 84% 29.86 in 10.0 mi SE 19.6 mph - N/A   Overcast
10:53 AM 63.0 °F 60.1 °F 90% 29.84 in 6.0 mi SE 10.4 mph - 0.00 in Rain Light Rain
11:30 AM 64.4 °F 62.6 °F 94% 29.79 in 2.5 mi SE 9.2 mph - 0.03 in Rain Rain
11:41 AM 64.4 °F 62.6 °F 94% 29.78 in 1.2 mi Variable 6.9 mph - 0.09 in Rain Light Rain
11:53 AM 64.0 °F 62.1 °F 93% 29.82 in 1.0 mi WNW 15.0 mph 21.9 mph 0.23 in Rain Heavy Rain
12:01 PM 66.2 °F 64.4 °F 94% 29.78 in 1.2 mi SSW 8.1 mph 24.2 mph 0.10 in Rain , Thunderstorm Heavy Rain
12:13 PM 66.2 °F 64.4 °F 94% 29.77 in 2.5 mi South 11.5 mph 21.9 mph 0.19 in Rain Rain
12:15 PM 66.2 °F 64.4 °F 94% 29.77 in 3.0 mi South 9.2 mph 21.9 mph 0.19 in Rain Rain
12:25 PM 66.2 °F 64.4 °F 94% 29.76 in 5.0 mi South 11.5 mph 17.3 mph 0.21 in Rain Light Rain
12:53 PM 69.1 °F 66.0 °F 90% 29.77 in 3.0 mi South 12.7 mph 20.7 mph 0.22 in Rain , Thunderstorm Light Rain
1:08 PM 69.8 °F 66.2 °F 88% 29.73 in 6.0 mi South 15.0 mph 28.8 mph 0.01 in Rain Light Rain
1:53 PM 70.0 °F 66.9 °F 90% 29.73 in 5.0 mi South 18.4 mph 27.6 mph 0.02 in   Overcast
2:53 PM 72.0 °F 68.0 °F 87% 29.72 in 6.0 mi South 16.1 mph 28.8 mph N/A   Overcast
3:49 PM 71.6 °F 68.0 °F 88% 29.71 in 6.0 mi South 19.6 mph 28.8 mph 0.00 in   Overcast
3:53 PM 72.0 °F 68.0 °F 87% 29.73 in 6.0 mi South 17.3 mph 28.8 mph 0.00 in   Overcast
4:36 PM 71.6 °F 68.0 °F 88% 29.72 in 6.0 mi South 16.1 mph 24.2 mph 0.00 in   Overcast
4:53 PM 71.1 °F 68.0 °F 90% 29.75 in 5.0 mi South 12.7 mph 20.7 mph 0.00 in   Overcast
5:14 PM 71.6 °F 66.2 °F 83% 29.73 in 5.0 mi South 10.4 mph 20.7 mph N/A   Overcast
5:22 PM 69.8 °F 66.2 °F 88% 29.74 in 5.0 mi WSW 10.4 mph 21.9 mph N/A   Overcast
5:53 PM 69.1 °F 66.9 °F 93% 29.78 in 5.0 mi SSW 9.2 mph - 0.00 in   Overcast
6:09 PM 69.8 °F 66.2 °F 88% 29.75 in 5.0 mi SSW 8.1 mph - N/A   Overcast
6:36 PM 69.8 °F 66.2 °F 88% 29.77 in 6.0 mi SW 9.2 mph - N/A   Overcast
6:53 PM 70.0 °F 66.9 °F 90% 29.80 in 6.0 mi SW 11.5 mph - N/A   Overcast
7:26 PM 69.8 °F 66.2 °F 88% 29.78 in 6.0 mi SW 8.1 mph - 0.00 in   Overcast
7:53 PM 68.0 °F 66.0 °F 93% 29.83 in 5.0 mi West 6.9 mph - 0.00 in   Overcast
8:53 PM 69.1 °F 66.9 °F 93% 29.86 in 4.0 mi West 4.6 mph - 0.00 in Rain Light Rain
9:09 PM 69.8 °F 66.2 °F 88% 29.83 in 5.0 mi WNW 3.5 mph - 0.00 in Rain Light Rain
9:16 PM 69.8 °F 66.2 °F 88% 29.84 in 6.0 mi Variable 3.5 mph - 0.00 in Rain Light Rain
9:49 PM 66.2 °F 62.6 °F 88% 29.85 in 10.0 mi North 3.5 mph - 0.00 in   Scattered Clouds
9:53 PM 66.9 °F 61.0 °F 81% 29.87 in 10.0 mi North 3.5 mph - 0.00 in   Scattered Clouds
10:53 PM 64.9 °F 63.0 °F 93% 29.88 in 8.0 mi Calm Calm - N/A   Mostly Cloudy
11:53 PM 63.0 °F 61.0 °F 93% 29.88 in 2.5 mi Calm Calm - N/A   Partly Cloudy